User: anonymous   Login
Location: Niverville
(49.6028°N, 97.0419°W)
Time: 22:41:41
(UTC-05:00)
Language:

BREEZE-M DEB (TANK) - Orbit

View from above orbital plane
View from above orbital plane
View from above satellite
View from above satellite

Ground track
Ground track

The orbit data is extracted from the following two-line orbital elements,

1 33374U 08044B   16265.64332322  .00000966  00000-0  21061-3 0  9995
2 33374  49.4460 112.6768 5454126 283.1960  23.8883  4.86443414140922
Epoch (UTC): 21 September 2016 15:26:23
Eccentricity: 0.5454126
inclination: 49.4460°
perigee height: 310 km
apogee height: 16360 km
right ascension of ascending node: 112.6768°
argument of perigee: 283.1960°
revolutions per day: 4.86443414
mean anomaly at epoch: 23.8883°
orbit number at epoch: 14092

The dashed part of the orbit path shows where the satellite is in the earth's shadow,  

DLR